TimeEST,TemperatureF,Dew PointF,Humidity,Sea Level PressureIn,VisibilityMPH,Wind Direction,Wind SpeedMPH,Gust SpeedMPH,PrecipitationIn,Events,Conditions,WindDirDegrees,DateUTC
12:53 AM,30.0,26.1,85,30.14,10.0,ESE,5.8,-,N/A,,Clear,110,2012-11-06 05:53:00
1:53 AM,30.0,26.1,85,30.13,10.0,East,5.8,-,N/A,,Clear,90,2012-11-06 06:53:00
2:53 AM,30.0,25.0,82,30.12,10.0,ESE,5.8,-,N/A,,Clear,110,2012-11-06 07:53:00
3:53 AM,30.0,25.0,82,30.11,10.0,ESE,4.6,-,N/A,,Clear,120,2012-11-06 08:53:00
4:53 AM,28.9,25.0,85,30.11,10.0,East,3.5,-,N/A,,Clear,100,2012-11-06 09:53:00
5:53 AM,28.0,25.0,88,30.11,9.0,ESE,4.6,-,N/A,,Clear,120,2012-11-06 10:53:00
6:53 AM,27.0,23.0,85,30.10,9.0,SSE,4.6,-,N/A,,Clear,150,2012-11-06 11:53:00
7:53 AM,26.1,23.0,88,30.10,7.0,SSE,5.8,-,N/A,,Clear,160,2012-11-06 12:53:00
8:53 AM,33.1,27.0,78,30.09,9.0,SE,6.9,-,N/A,,Clear,140,2012-11-06 13:53:00
9:53 AM,37.0,27.0,67,30.09,10.0,East,3.5,-,N/A,,Clear,100,2012-11-06 14:53:00
10:53 AM,39.9,28.0,63,30.09,10.0,NNE,3.5,-,N/A,,Clear,20,2012-11-06 15:53:00
11:53 AM,41.0,28.0,60,30.07,10.0,Variable,4.6,-,N/A,,Clear,0,2012-11-06 16:53:00
12:53 PM,42.1,28.0,58,30.03,10.0,Variable,3.5,-,N/A,,Partly Cloudy,0,2012-11-06 17:53:00
1:53 PM,43.0,28.0,56,30.00,10.0,ENE,6.9,-,N/A,,Clear,70,2012-11-06 18:53:00
2:53 PM,45.0,28.9,53,29.99,10.0,NNE,4.6,-,N/A,,Clear,20,2012-11-06 19:53:00
3:53 PM,44.1,28.0,53,29.98,10.0,ENE,8.1,-,N/A,,Clear,60,2012-11-06 20:53:00
4:53 PM,42.1,27.0,55,29.97,10.0,ENE,3.5,-,N/A,,Clear,60,2012-11-06 21:53:00
5:53 PM,39.0,27.0,62,29.98,10.0,East,4.6,-,N/A,,Clear,80,2012-11-06 22:53:00
6:53 PM,37.9,28.0,68,29.98,10.0,ENE,5.8,-,N/A,,Clear,60,2012-11-06 23:53:00
7:53 PM,36.0,28.9,76,29.98,10.0,ENE,9.2,-,N/A,,Clear,60,2012-11-07 00:53:00
8:53 PM,35.1,28.0,76,29.98,10.0,ENE,8.1,-,N/A,,Clear,70,2012-11-07 01:53:00
9:53 PM,34.0,28.0,79,29.97,10.0,East,9.2,-,N/A,,Clear,80,2012-11-07 02:53:00
10:53 PM,33.1,28.0,82,29.95,10.0,East,8.1,-,N/A,,Clear,80,2012-11-07 03:53:00
11:53 PM,32.0,28.0,85,29.94,10.0,East,6.9,-,N/A,,Clear,80,2012-11-07 04:53:00